Lid_Strength_Index
3 3 3 3 3 3 2 2 2 2 2 2 3 3 3 3 4 4 7 4 4 -2 -1 0 1 2 2 3 3 3 7 9 9 8 8 5 6 4 4 5 5 4 4 3 2
3 3 3 3 3 3 3 3 2 2 2 2 2 3 3 3 4 6 2 -1 -2 -2 1 2 3 3 4 5 4 5 7 8 6 6 7 6 6 6 6 6 6 5 3 2 2
3 3 3 3 3 3 3 3 3 3 3 3 2 3 3 2 6 6 -1 -2 -2 -2 0 1 2 3 5 4 5 6 7 6 6 5 5 6 6 5 6 7 5 6 5 3 3
4 4 3 3 3 3 3 3 3 3 3 3 2 2 2 3 7 1 -3 -1 -2 -1 1 2 3 5 6 7 5 7 6 6 5 5 5 6 5 6 5 5 4 3 3 3 3
4 4 4 4 4 3 3 3 3 3 3 3 2 2 2 6 7 -0 -2 -1 -1 0 2 3 4 5 7 6 6 7 6 5 5 5 5 5 6 6 6 4 3 3 3 3 3
4 4 4 4 4 4 4 4 4 4 3 3 2 2 3 8 3 -0 1 -0 0 1 2 3 4 4 5 6 6 5 6 6 5 5 5 6 6 5 5 4 4 4 4 3 3
4 4 4 4 4 4 4 4 4 4 3 3 2 1 5 5 3 -1 0 0 0 1 3 2 2 4 4 6 5 5 7 6 6 5 6 5 7 7 4 4 5 4 4 3 3
4 4 4 4 4 4 4 5 4 3 3 2 2 2 6 3 -1 0 -0 1 -0 0 1 1 1 3 5 4 5 7 7 9 7 6 6 6 10 6 4 5 5 4 4 4 3
4 5 4 4 4 4 5 5 4 2 2 2 2 4 6 3 4 0 -0 2 1 1 1 2 2 4 5 7 8 8 11 10 9 6 6 7 8 6 4 5 5 5 4 4 3
4 5 5 5 5 5 5 5 2 2 1 1 2 6 5 5 3 1 0 1 2 2 3 4 4 6 6 8 14 11 11 10 10 7 7 7 8 6 5 5 5 5 4 4 4
4 4 5 5 5 6 5 5 4 5 4 6 6 6 5 4 3 2 1 2 2 4 6 5 7 9 8 7 8 9 10 10 8 7 8 8 8 6 5 5 5 5 5 4 4
4 4 5 5 6 6 5 7 6 6 6 5 6 6 4 4 6 2 1 4 4 7 5 7 9 6 6 7 8 8 10 10 8 7 8 8 8 6 5 5 5 5 5 4 4
4 4 5 6 6 5 5 6 4 4 6 6 5 5 5 5 6 5 2 3 5 6 7 8 7 5 7 8 9 8 9 9 10 8 7 9 9 8 6 5 5 4 4 4 4
4 4 5 6 6 4 6 4 4 3 7 6 6 5 5 4 6 4 2 3 5 6 6 7 5 7 7 8 8 10 7 8 9 10 12 8 13 8 7 7 5 5 5 4 4
4 4 5 6 5 5 4 3 3 4 12 6 6 3 4 5 5 5 2 3 6 6 6 7 7 7 8 8 7 9 7 8 9 9 10 10 12 8 8 8 6 5 4 4 3
4 5 6 5 4 4 3 3 4 8 12 8 5 6 6 5 5 5 4 3 3 5 6 6 5 5 6 6 6 6 8 8 8 9 13 11 11 10 8 7 6 5 5 4 3
5 6 6 4 5 3 4 4 8 10 7 8 7 5 6 6 6 6 6 6 7 10 10 7 7 5 5 8 6 7 9 12 13 13 13 10 11 9 6 5 5 5 5 4 3
6 7 6 5 3 4 4 6 10 8 8 6 6 6 7 6 6 6 6 7 5 6 8 10 11 7 5 7 8 8 8 12 16 14 12 10 12 8 5 4 4 4 4 4 4
7 4 4 4 4 4 6 9 8 8 6 7 6 7 7 6 6 6 6 7 6 5 8 8 9 5 5 5 6 9 10 7 10 9 12 10 9 6 5 5 5 4 4 4 4
5 4 4 4 4 5 7 9 7 6 6 6 8 7 8 7 7 7 7 5 6 5 4 6 9 6 6 5 6 7 6 11 10 14 15 11 11 10 7 6 5 4 5 4 4
5 5 5 3 4 7 9 7 7 5 6 7 8 7 7 7 7 7 7 6 5 5 4 5 7 7 6 8 8 8 9 9 8 10 13 13 10 6 6 5 5 4 4 4 4
5 7 4 4 8 8 8 6 8 6 5 6 6 7 7 6 7 7 7 6 4 4 6 5 6 9 8 5 5 6 8 8 11 11 10 10 10 5 5 4 4 4 4 3 3
5 6 5 5 9 9 6 6 6 7 6 6 7 6 6 7 8 6 6 5 5 5 6 5 7 9 9 7 6 7 7 7 7 7 10 12 10 5 4 4 4 4 3 3 3
6 7 7 6 6 7 8 7 7 6 6 6 6 6 7 7 6 7 6 5 5 5 1 4 7 8 10 8 7 8 7 7 8 10 10 9 8 6 5 5 4 3 3 4 4
5 6 6 10 8 7 6 7 8 7 6 5 6 6 7 8 7 7 6 5 5 6 4 5 8 7 7 7 7 7 7 7 8 8 10 8 8 6 5 4 4 3 4 4 4
5 6 5 6 7 7 9 7 7 7 7 7 7 6 6 7 6 7 6 6 6 5 5 5 7 7 8 7 7 7 7 7 7 7 7 7 7 4 4 3 4 3 3 4 4
3 3 6 9 7 8 7 7 6 6 6 5 5 6 6 6 6 5 5 5 5 5 6 6 7 8 9 7 7 9 7 7 6 6 6 8 6 4 4 4 4 3 3 3 3